When you browse on this site, cookies collect data to enhance your experience and personalize the content and advertising you see.
Visit our Privacy Policy to learn more. By continuing to use the site, you agree to this use of cookies and data.
  • In Hungary
  • List of Countries
  • For 7 days
  • Water Temperature
  • Satellite Maps
  • Weather Map
  • News
  • Weather Widgets
  • user-avatar
    Login

    Hourly Weather Forst

    Today, 18 February, Monday

    Time Temperature Precipitation Wind Pressure Humidity
    00:00 +5°C° 0 mm 2 mps 760 mmHg 73%
    01:00 +4°C° 0 mm 2 mps 760 mmHg 73%
    02:00 +4°C° 0 mm 2 mps 760 mmHg 75%
    03:00 +4°C° 0 mm 2 mps 759 mmHg 76%
    04:00 +4°C° 0 mm 2 mps 759 mmHg 77%
    05:00 +4°C° 0 mm 2 mps 759 mmHg 77%
    06:00 +3°C° 0 mm 2 mps 759 mmHg 76%
    07:00 +3°C° 0 mm 2 mps 759 mmHg 72%
    08:00 +5°C° 0 mm 2 mps 759 mmHg 66%
    09:00 +5°C° 0 mm 3 mps 759 mmHg 60%
    10:00 +8°C° 0 mm 3 mps 759 mmHg 55%
    11:00 +9°C° 0 mm 3 mps 758 mmHg 52%
    12:00 +11°C° 0 mm 3 mps 758 mmHg 50%
    13:00 +14°C° 0 mm 2 mps 758 mmHg 47%
    14:00 +14°C° 0 mm 2 mps 758 mmHg 50%
    15:00 +13°C° 0 mm 2 mps 757 mmHg 53%
    16:00 +13°C° 0 mm 2 mps 757 mmHg 55%
    17:00 +10°C° 0 mm 2 mps 757 mmHg 59%
    18:00 +9°C° 0 mm 2 mps 757 mmHg 63%
    19:00 +7°C° 0 mm 3 mps 756 mmHg 67%
    20:00 +7°C° 0 mm 3 mps 756 mmHg 68%
    21:00 +5°C° 0 mm 3 mps 756 mmHg 68%
    22:00 +5°C° 0 mm 3 mps 756 mmHg 68%
    23:00 +4°C° 0 mm 3 mps 756 mmHg 69%

    Tomorrow, 19 February, Tuesday

    Time Temperature Precipitation Wind Pressure Humidity
    00:00 +4°C° 0 mm 3 mps 756 mmHg 70%
    01:00 +4°C° 0 mm 3 mps 756 mmHg 71%
    02:00 +4°C° 0 mm 3 mps 755 mmHg 71%
    03:00 +4°C° 0 mm 3 mps 755 mmHg 71%
    04:00 +3°C° 0 mm 3 mps 755 mmHg 71%
    05:00 +3°C° 0 mm 4 mps 755 mmHg 71%
    06:00 +3°C° 0 mm 4 mps 754 mmHg 70%
    07:00 +3°C° 0 mm 4 mps 754 mmHg 70%
    08:00 +4°C° 0 mm 4 mps 754 mmHg 68%
    09:00 +5°C° 0 mm 5 mps 754 mmHg 67%
    10:00 +7°C° 0 mm 5 mps 754 mmHg 66%
    11:00 +8°C° 0 mm 5 mps 754 mmHg 65%
    12:00 +9°C° 0 mm 5 mps 754 mmHg 64%
    13:00 +10°C° 0 mm 6 mps 754 mmHg 63%
    14:00 +9°C° 0 mm 5 mps 754 mmHg 67%
    15:00 +9°C° 0 mm 5 mps 754 mmHg 71%
    16:00 +8°C° 0 mm 4 mps 754 mmHg 74%
    17:00 +7°C° 0 mm 4 mps 754 mmHg 78%
    18:00 +7°C° 0 mm 3 mps 755 mmHg 81%
    19:00 +7°C° 0 mm 3 mps 755 mmHg 85%
    20:00 +5°C° 0 mm 4 mps 755 mmHg 83%
    21:00 +5°C° 0 mm 4 mps 755 mmHg 81%
    22:00 +5°C° 0 mm 4 mps 755 mmHg 80%
    23:00 +5°C° 0 mm 4 mps 756 mmHg 81%

    Day after tomorrow, 20 February, Wednesday

    Time Temperature Precipitation Wind Pressure Humidity
    00:00 +4°C° 0 mm 4 mps 756 mmHg 82%
    01:00 +4°C° 0 mm 4 mps 757 mmHg 83%
    02:00 +4°C° 0 mm 4 mps 757 mmHg 84%
    03:00 +3°C° 0 mm 5 mps 757 mmHg 85%
    04:00 +3°C° 0 mm 5 mps 757 mmHg 85%
    05:00 +4°C° 0 mm 4 mps 757 mmHg 86%
    06:00 +4°C° 0 mm 4 mps 757 mmHg 87%
    07:00 +3°C° 0 mm 4 mps 757 mmHg 87%
    08:00 +4°C° 0 mm 4 mps 758 mmHg 84%
    09:00 +5°C° 0 mm 5 mps 758 mmHg 80%
    10:00 +5°C° 0 mm 5 mps 759 mmHg 76%
    11:00 +6°C° 0 mm 5 mps 759 mmHg 73%
    12:00 +7°C° 0 mm 5 mps 759 mmHg 70%
    13:00 +8°C° 0 mm 5 mps 759 mmHg 66%
    14:00 +8°C° 0 mm 4 mps 759 mmHg 66%
    15:00 +8°C° 0 mm 4 mps 759 mmHg 66%
    16:00 +8°C° 0 mm 4 mps 759 mmHg 65%
    17:00 +8°C° 0 mm 3 mps 759 mmHg 68%
    18:00 +8°C° 0 mm 3 mps 759 mmHg 72%
    19:00 +7°C° 0 mm 3 mps 760 mmHg 75%
    20:00 +7°C° 0 mm 3 mps 760 mmHg 75%
    21:00 +7°C° 0 mm 3 mps 760 mmHg 75%
    22:00 +5°C° 0 mm 3 mps 760 mmHg 75%
    23:00 +7°C° 0 mm 3 mps 760 mmHg 77%

    21 February, Thursday

    Time Temperature Precipitation Wind Pressure Humidity
    00:00 +6°C° 0 mm 4 mps 760 mmHg 78%
    01:00 +6°C° 0 mm 4 mps 760 mmHg 80%
    02:00 +6°C° 0.4 mm 4 mps 760 mmHg 82%
    03:00 +6°C° 0.4 mm 4 mps 760 mmHg 83%
    04:00 +6°C° 0.4 mm 4 mps 760 mmHg 85%
    05:00 +6°C° 0.4 mm 5 mps 760 mmHg 85%
    06:00 +6°C° 0.4 mm 5 mps 760 mmHg 86%
    07:00 +6°C° 0.4 mm 5 mps 760 mmHg 86%
    08:00 +6°C° 0.3 mm 5 mps 760 mmHg 85%
    09:00 +5°C° 0.3 mm 6 mps 760 mmHg 84%
    10:00 +5°C° 0.3 mm 6 mps 760 mmHg 83%
    11:00 +7°C° 0.4 mm 6 mps 760 mmHg 83%
    12:00 +7°C° 0.4 mm 5 mps 760 mmHg 84%
    13:00 +7°C° 0.4 mm 5 mps 760 mmHg 84%
    14:00 +7°C° 0.5 mm 5 mps 760 mmHg 86%
    15:00 +7°C° 0.5 mm 5 mps 761 mmHg 87%
    16:00 +7°C° 0.5 mm 5 mps 761 mmHg 89%
    17:00 +7°C° 0.1 mm 5 mps 761 mmHg 89%
    18:00 +7°C° 0.1 mm 4 mps 762 mmHg 90%
    19:00 +7°C° 0.1 mm 4 mps 762 mmHg 90%
    20:00 +7°C° 0.1 mm 4 mps 763 mmHg 91%
    21:00 +7°C° 0.1 mm 4 mps 763 mmHg 92%
    22:00 +7°C° 0.1 mm 4 mps 763 mmHg 92%
    23:00 +7°C° 0.2 mm 4 mps 764 mmHg 93%

    22 February, Friday

    Time Temperature Precipitation Wind Pressure Humidity
    00:00 +8°C° 0.2 mm 3 mps 764 mmHg 93%
    01:00 +8°C° 0.2 mm 3 mps 765 mmHg 94%
    02:00 +8°C° 0.2 mm 3 mps 765 mmHg 94%
    03:00 +8°C° 0.2 mm 3 mps 765 mmHg 95%
    04:00 +8°C° 0.2 mm 3 mps 766 mmHg 95%
    05:00 +7°C° 0 mm 3 mps 766 mmHg 95%
    06:00 +7°C° 0 mm 3 mps 767 mmHg 94%
    07:00 +7°C° 0 mm 3 mps 768 mmHg 94%
    08:00 +7°C° 0 mm 3 mps 768 mmHg 90%
    09:00 +6°C° 0 mm 2 mps 769 mmHg 86%
    10:00 +6°C° 0 mm 2 mps 770 mmHg 82%
    11:00 +6°C° 0 mm 2 mps 770 mmHg 78%
    12:00 +7°C° 0 mm 2 mps 771 mmHg 74%
    13:00 +7°C° 0 mm 2 mps 771 mmHg 70%
    14:00 +7°C° 0 mm 2 mps 771 mmHg 67%
    15:00 +7°C° 0 mm 2 mps 772 mmHg 65%
    16:00 +7°C° 0 mm 2 mps 772 mmHg 62%
    17:00 +6°C° 0 mm 2 mps 772 mmHg 65%
    18:00 +5°C° 0 mm 2 mps 773 mmHg 69%
    19:00 +3°C° 0 mm 2 mps 773 mmHg 73%
    20:00 +3°C° 0 mm 2 mps 773 mmHg 73%
    21:00 +2°C° 0 mm 2 mps 774 mmHg 73%
    22:00 +2°C° 0 mm 2 mps 774 mmHg 73%
    23:00 +1°C° 0 mm 2 mps 774 mmHg 73%

    23 February, Saturday

    Time Temperature Precipitation Wind Pressure Humidity
    00:00 +1°C° 0 mm 2 mps 774 mmHg 73%
    01:00 -1°C° 0 mm 2 mps 774 mmHg 73%
    02:00 -1°C° 0 mm 2 mps 774 mmHg 73%
    03:00 +1°C° 0 mm 1 mps 774 mmHg 72%
    04:00 +1°C° 0 mm 1 mps 774 mmHg 71%
    05:00 +1°C° 0 mm 1 mps 773 mmHg 71%
    06:00 +1°C° 0 mm 1 mps 773 mmHg 72%
    07:00 +1°C° 0 mm 1 mps 773 mmHg 73%
    08:00 +3°C° 0 mm 1 mps 773 mmHg 69%
    09:00 +5°C° 0 mm 1 mps 773 mmHg 65%
    10:00 +6°C° 0 mm 1 mps 773 mmHg 61%
    11:00 +7°C° 0 mm 1 mps 773 mmHg 58%
    12:00 +8°C° 0 mm 2 mps 772 mmHg 56%
    13:00 +9°C° 0 mm 2 mps 772 mmHg 54%
    14:00 +9°C° 0 mm 2 mps 772 mmHg 57%
    15:00 +9°C° 0 mm 2 mps 771 mmHg 60%
    16:00 +9°C° 0 mm 2 mps 771 mmHg 62%
    17:00 +9°C° 0 mm 1 mps 771 mmHg 69%
    18:00 +8°C° 0 mm 1 mps 771 mmHg 76%
    19:00 +7°C° 0 mm 1 mps 771 mmHg 82%
    20:00 +5°C° 0 mm 2 mps 771 mmHg 85%
    21:00 +5°C° 0 mm 2 mps 771 mmHg 88%
    22:00 +5°C° 0 mm 2 mps 771 mmHg 91%
    23:00 +5°C° 0 mm 2 mps 771 mmHg 92%
    Show more